When you browse on this site, cookies collect data to enhance your experience and personalize the content and advertising you see.
Visit our Privacy Policy to learn more. By continuing to use the site, you agree to this use of cookies and data.
  • In Romania
  • List of Countries
  • For 7 days
  • Water Temperature
  • Satellite Maps
  • Weather Map
  • Weather Widgets
  • user-avatar
    Login

    Hourly Weather Barcelona

    Today, 12 December, Wednesday

    Time Temperature Precipitation Wind Pressure Humidity
    00:00 +26°C° 0.2 mm 4 mps 761 mmHg 86%
    01:00 +26°C° 0.2 mm 3 mps 761 mmHg 87%
    02:00 +25°C° 0.2 mm 3 mps 761 mmHg 87%
    03:00 +25°C° 0.1 mm 2 mps 761 mmHg 88%
    04:00 +25°C° 0.1 mm 2 mps 761 mmHg 88%
    05:00 +25°C° 0.1 mm 2 mps 760 mmHg 88%
    06:00 +26°C° 0 mm 2 mps 761 mmHg 83%
    07:00 +27°C° 0 mm 2 mps 761 mmHg 78%
    08:00 +28°C° 0 mm 2 mps 761 mmHg 73%
    09:00 +31°C° 0 mm 2 mps 761 mmHg 64%
    10:00 +34°C° 0 mm 2 mps 761 mmHg 55%
    11:00 +36°C° 0 mm 1 mps 761 mmHg 47%
    12:00 +36°C° 0 mm 2 mps 760 mmHg 47%
    13:00 +36°C° 0 mm 2 mps 760 mmHg 48%
    14:00 +36°C° 0 mm 3 mps 759 mmHg 49%
    15:00 +35°C° 0.1 mm 3 mps 758 mmHg 53%
    16:00 +34°C° 0.1 mm 4 mps 758 mmHg 57%
    17:00 +33°C° 0.1 mm 4 mps 758 mmHg 62%
    18:00 +32°C° 0 mm 4 mps 758 mmHg 67%
    19:00 +29°C° 0 mm 5 mps 759 mmHg 73%
    20:00 +28°C° 0 mm 5 mps 759 mmHg 79%
    21:00 +28°C° 0 mm 5 mps 759 mmHg 80%
    22:00 +27°C° 0 mm 5 mps 760 mmHg 82%
    23:00 +27°C° 0 mm 4 mps 760 mmHg 84%

    Tomorrow, 13 December, Thursday

    Time Temperature Precipitation Wind Pressure Humidity
    00:00 +26°C° 0 mm 4 mps 760 mmHg 85%
    01:00 +26°C° 0 mm 4 mps 760 mmHg 86%
    02:00 +25°C° 0 mm 4 mps 760 mmHg 87%
    03:00 +25°C° 0 mm 4 mps 760 mmHg 88%
    04:00 +25°C° 0 mm 3 mps 759 mmHg 89%
    05:00 +24°C° 0 mm 3 mps 759 mmHg 91%
    06:00 +26°C° 0 mm 3 mps 760 mmHg 84%
    07:00 +27°C° 0 mm 3 mps 760 mmHg 78%
    08:00 +28°C° 0 mm 3 mps 761 mmHg 72%
    09:00 +30°C° 0 mm 3 mps 761 mmHg 63%
    10:00 +34°C° 0 mm 3 mps 761 mmHg 54%
    11:00 +36°C° 0 mm 3 mps 761 mmHg 45%
    12:00 +36°C° 0 mm 3 mps 760 mmHg 47%
    13:00 +36°C° 0 mm 4 mps 759 mmHg 48%
    14:00 +36°C° 0 mm 4 mps 759 mmHg 50%
    15:00 +35°C° 0.1 mm 4 mps 758 mmHg 54%
    16:00 +34°C° 0.1 mm 4 mps 758 mmHg 58%
    17:00 +33°C° 0.1 mm 5 mps 758 mmHg 63%
    18:00 +30°C° 0 mm 5 mps 758 mmHg 68%
    19:00 +29°C° 0 mm 5 mps 759 mmHg 73%
    20:00 +28°C° 0 mm 5 mps 759 mmHg 78%
    21:00 +27°C° 0 mm 4 mps 760 mmHg 81%
    22:00 +27°C° 0 mm 4 mps 760 mmHg 83%
    23:00 +26°C° 0 mm 4 mps 760 mmHg 85%

    Day after tomorrow, 14 December, Friday

    Time Temperature Precipitation Wind Pressure Humidity
    00:00 +26°C° 0 mm 4 mps 760 mmHg 87%
    01:00 +25°C° 0 mm 4 mps 760 mmHg 88%
    02:00 +25°C° 0 mm 4 mps 760 mmHg 89%
    03:00 +25°C° 0 mm 3 mps 760 mmHg 90%
    04:00 +24°C° 0 mm 3 mps 760 mmHg 90%
    05:00 +24°C° 0 mm 3 mps 760 mmHg 91%
    06:00 +25°C° 0 mm 3 mps 760 mmHg 85%
    07:00 +26°C° 0 mm 3 mps 761 mmHg 80%
    08:00 +28°C° 0 mm 3 mps 761 mmHg 75%
    09:00 +30°C° 0 mm 3 mps 761 mmHg 65%
    10:00 +34°C° 0 mm 3 mps 761 mmHg 56%
    11:00 +36°C° 0 mm 3 mps 762 mmHg 46%
    12:00 +35°C° 0 mm 4 mps 761 mmHg 49%
    13:00 +34°C° 0 mm 4 mps 760 mmHg 52%
    14:00 +34°C° 0 mm 4 mps 759 mmHg 55%
    15:00 +33°C° 0.1 mm 5 mps 759 mmHg 57%
    16:00 +33°C° 0.1 mm 5 mps 759 mmHg 58%
    17:00 +32°C° 0.1 mm 5 mps 758 mmHg 60%
    18:00 +30°C° 0.2 mm 5 mps 759 mmHg 65%
    19:00 +29°C° 0.2 mm 5 mps 759 mmHg 70%
    20:00 +27°C° 0.2 mm 5 mps 760 mmHg 74%
    21:00 +27°C° 0.1 mm 5 mps 760 mmHg 76%
    22:00 +26°C° 0.1 mm 4 mps 760 mmHg 78%
    23:00 +26°C° 0.1 mm 4 mps 761 mmHg 80%

    15 December, Saturday

    Time Temperature Precipitation Wind Pressure Humidity
    00:00 +25°C° 0 mm 4 mps 760 mmHg 81%
    01:00 +25°C° 0 mm 3 mps 760 mmHg 83%
    02:00 +25°C° 0 mm 3 mps 760 mmHg 84%
    03:00 +24°C° 0 mm 3 mps 760 mmHg 85%
    04:00 +24°C° 0 mm 3 mps 760 mmHg 87%
    05:00 +24°C° 0 mm 2 mps 760 mmHg 88%
    06:00 +25°C° 0 mm 2 mps 761 mmHg 82%
    07:00 +26°C° 0 mm 2 mps 761 mmHg 76%
    08:00 +28°C° 0 mm 2 mps 762 mmHg 70%
    09:00 +30°C° 0 mm 2 mps 762 mmHg 61%
    10:00 +34°C° 0 mm 2 mps 762 mmHg 52%
    11:00 +36°C° 0 mm 2 mps 762 mmHg 44%
    12:00 +36°C° 0 mm 3 mps 761 mmHg 44%
    13:00 +36°C° 0 mm 4 mps 760 mmHg 45%
    14:00 +35°C° 0 mm 4 mps 760 mmHg 45%
    15:00 +34°C° 0 mm 4 mps 759 mmHg 49%
    16:00 +33°C° 0 mm 4 mps 759 mmHg 53%
    17:00 +33°C° 0 mm 5 mps 759 mmHg 57%
    18:00 +30°C° 0 mm 5 mps 759 mmHg 62%
    19:00 +29°C° 0 mm 5 mps 760 mmHg 66%
    20:00 +28°C° 0 mm 5 mps 760 mmHg 70%
    21:00 +27°C° 0 mm 5 mps 761 mmHg 73%
    22:00 +26°C° 0 mm 4 mps 761 mmHg 75%
    23:00 +25°C° 0 mm 4 mps 761 mmHg 77%

    16 December, Sunday

    Time Temperature Precipitation Wind Pressure Humidity
    00:00 +25°C° 0 mm 4 mps 761 mmHg 79%
    01:00 +23°C° 0 mm 4 mps 761 mmHg 81%
    02:00 +24°C° 0 mm 3 mps 760 mmHg 83%
    03:00 +22°C° 0 mm 3 mps 760 mmHg 85%
    04:00 +22°C° 0 mm 3 mps 761 mmHg 87%
    05:00 +21°C° 0 mm 2 mps 761 mmHg 89%
    06:00 +23°C° 0 mm 2 mps 761 mmHg 82%
    07:00 +25°C° 0 mm 2 mps 762 mmHg 74%
    08:00 +26°C° 0 mm 2 mps 762 mmHg 67%
    09:00 +29°C° 0 mm 2 mps 762 mmHg 55%
    10:00 +32°C° 0 mm 2 mps 762 mmHg 43%
    11:00 +35°C° 0 mm 1 mps 762 mmHg 32%
    12:00 +36°C° 0 mm 2 mps 761 mmHg 33%
    13:00 +36°C° 0 mm 2 mps 760 mmHg 35%
    14:00 +36°C° 0 mm 3 mps 759 mmHg 37%
    15:00 +35°C° 0 mm 3 mps 759 mmHg 44%
    16:00 +33°C° 0 mm 4 mps 759 mmHg 50%
    17:00 +32°C° 0 mm 4 mps 758 mmHg 57%
    18:00 +30°C° 0 mm 4 mps 759 mmHg 64%
    19:00 +28°C° 0 mm 5 mps 759 mmHg 70%
    20:00 +27°C° 0 mm 5 mps 760 mmHg 77%
    21:00 +26°C° 0 mm 5 mps 760 mmHg 78%
    22:00 +26°C° 0 mm 5 mps 760 mmHg 80%
    23:00 +25°C° 0 mm 4 mps 760 mmHg 81%

    17 December, Monday

    Time Temperature Precipitation Wind Pressure Humidity
    00:00 +25°C° 0 mm 4 mps 760 mmHg 82%
    01:00 +25°C° 0 mm 4 mps 760 mmHg 84%
    02:00 +24°C° 0 mm 3 mps 759 mmHg 85%
    03:00 +24°C° 0 mm 3 mps 759 mmHg 86%
    04:00 +24°C° 0 mm 3 mps 759 mmHg 86%
    05:00 +24°C° 0 mm 2 mps 759 mmHg 87%
    06:00 +25°C° 0 mm 2 mps 760 mmHg 82%
    07:00 +27°C° 0 mm 2 mps 761 mmHg 76%
    08:00 +28°C° 0 mm 2 mps 761 mmHg 71%
    09:00 +30°C° 0 mm 2 mps 761 mmHg 62%
    10:00 +33°C° 0 mm 1 mps 761 mmHg 54%
    11:00 +35°C° 0 mm 1 mps 761 mmHg 45%
    12:00 +36°C° 0 mm 2 mps 760 mmHg 45%
    13:00 +36°C° 0 mm 3 mps 759 mmHg 46%
    14:00 +36°C° 0 mm 3 mps 758 mmHg 46%
    15:00 +35°C° 0 mm 4 mps 758 mmHg 51%
    16:00 +34°C° 0 mm 4 mps 758 mmHg 55%
    17:00 +33°C° 0 mm 5 mps 757 mmHg 60%
    18:00 +32°C° 0 mm 5 mps 758 mmHg 67%
    19:00 +29°C° 0 mm 5 mps 759 mmHg 73%
    20:00 +28°C° 0 mm 5 mps 759 mmHg 80%
    21:00 +27°C° 0 mm 4 mps 759 mmHg 82%
    22:00 +27°C° 0 mm 4 mps 760 mmHg 84%
    23:00 +26°C° 0 mm 4 mps 760 mmHg 85%
    Show more